Location: Sternwarte auf dem Internationalen Platz Vogelsang IP
(50.5721°N, 6.4398°E)
Time: 13:54:44
(UTC+01:00)

STARLINK-35686 - Pass Details

Date: 11 November 2025
Orbit: 282 x 284 km, 53.2° (Epoch: 15 November)

Event Time Altitude Azimuth Distance (km) Brightness Sun altitude
Exits shadow 04:53:47 - 75° (ENE) 1,262 5.5 -26.8°
Enters shadow 05:46:32 -71° 253° (WSW) 12,330 9.5 -18.4°
Maximum altitude 06:23:52 46° 351° (N) 371 1.6 -12.6°
